Погода в Ируне

Испания     43°20′10″N   1°47′48″W
темп.,
°C
ветер,
м/с
пор.,
м/с
влажн.,
%
обл.,
%
осадки,
мм/ч
давл.,
гПа
погр.,
м
27 февраля, сб
сб2701:00+7зсз0199100 0.0 103240
04:00+9с1298100 0.0 1031136
07:00+8ссв2298100 0.1 1031145
10:00+7с2293100 0.0 1031219
13:00+8с2379100 0.0 1030548
16:00+9ссз347163 0.0 1027720
19:00+6зсз128963 0.0 1027122
22:00+5ююз119337 0.0 102841
28 февраля, вс
вс2801:00+3з119420 0.0 102736
04:00+3юз12950 0.0 102528
07:00+3ююз11932 0.0 102527
10:00+7св007528 0.0 1024279
13:00+12св235919 0.0 1024865
16:00+11вюв146974 0.0 1022863
19:00+8юв238688 0.1 102262
22:00+7ююв228497 0.0 102349
1 марта, пн
пн101:00+6ююв348749 0.0 102387
04:00+6ююв34900 0.0 102391
07:00+6ююв358850 0.0 1023229
10:00+11ююв4116671 0.0 1023824
13:00+15ююв5125486 0.0 10231262
16:00+15ююв6135299 0.0 10211366
19:00+11ююв366895 0.0 1022283
22:00+9ююв477831 0.2 1023292
2 марта, вт
вт201:00+9ю378166 0.8 1024318
04:00+8ю487797 0.1 1024303
07:00+8ю497372 0.1 1025313
10:00+12ю410602 0.0 1026647
13:00+16ю510471 0.0 10261015
16:00+17ю48460 0.0 10251121
19:00+11ю126914 0.0 102630
22:00+9ююз2273100 0.0 102929
3 марта, ср
ср301:00+8ю227679 0.0 102933
04:00+7ю22790 0.0 102934
07:00+7ю22800 0.0 102936
10:00+12ююв12655 0.0 1030173
13:00+18ссз014835 0.0 1029583
16:00+17с125775 0.0 1027590
19:00+11всв118937 0.0 102722
22:00+9зюз11940 0.0 102922